www.pogodaiklimat.ru

Погода и климат >> Архив погоды >> Гана >> Такоради


ПОГОДА Такоради

  • Прогноз погоды Такоради
  • Монитор погоды Такоради

АРХИВ ПОГОДЫ Такоради

Время (UTC), дата Ветер
(напр.,м/с)
 
Видим.   Явления Облачность Т
(С)
Тd
(С)
f
(%)
Тe
(С)
Тes
(С)
Комфортность P
(гПа)
Po
(гПа)
Тmin
(С)
Tmax
(С)
R
(мм)
R24
(мм)
S
(см)
09 9.01 СЗ 1 5000 м дымка 1/1 360 м
[Cu med, cong]
+28.0 +25.2 85 +41 +49 опасность
перегрева
1012.7 1013.0
15 9.01 Ю 4 6000 м мгла 1/0
[Ac trans]
+31.6 +25.5 70 +46 +52 опасность
перегрева
1008.2 1008.0
18 9.01 Ю 1 8000 м мгла 1/0
[Ci sp]
+29.0 +25.0 79 +42 +42 опасность
перегрева
1008.8 1009.0 +32.1
21 9.01 штиль 0 8000 м дымка ясно +27.2 +25.2 89 +39 +39 очень
душно
1011.2 1011.0
09 10.01 СЗ 2 6000 м дымка 1/0
[Ci sp]
+28.2 +25.4 85 +41 +49 опасность
перегрева
1012.2 1012.0
12 10.01 ЮЗ 5 8000 м мгла 1/1 420 м
[Cu med, cong Ci sp]
+31.7 +24.6 66 +44 +53 опасность
перегрева
1010.7 1011.0
15 10.01 ЮЗ 6 8000 м мгла 5/0
[Ci sp]
+31.5 +25.4 70 +46 +49 опасность
перегрева
1008.9 1009.0
18 10.01 ЮЗ 2 8000 м мгла 5/0
[Ci sp]
+29.0 +25.0 79 +42 +42 опасность
перегрева
1009.6 1010.0 +31.8
21 10.01 штиль 0 8000 м дымка 4/4 400 м
[Sc]
+27.1 +25.1 89 +39 +39 очень
душно
1011.2 1011.0
00 11.01 штиль 0 8000 м дымка ясно +26.1 +24.9 93 +37 +37 очень
душно
1011.4 1011.0
03 11.01 штиль 0 8000 м дымка 1/1 360 м
[Sc]
+26.0 +24.6 92 +37 +37 очень
душно
1010.0 1010.0
09 11.01 штиль 0 5000 м дымка 3/3 360 м
[Cu med, cong]
+28.9 +26.3 86 +44 +52 опасность
перегрева
1012.0 1012.0
12 11.01 Ю 3 8000 м мгла 8/3 400 м
[Cu med, cong Ac trans]
+31.2 +26.5 76 +48 +54 опасность
перегрева
1010.4 1010.0
18 11.01 Ю 3 8000 м дымка 6/1 360 м
[Cu hum Ac trans Ci fib]
+29.6 +26.4 83 +45 +45 опасность
перегрева
1008.8 1009.0 +31.6
21 11.01 штиль 0 8000 м дымка ясно +28.5 +25.9 86 +43 +43 опасность
перегрева
1014.4 1014.0
06 12.01 штиль 0 3000 м дымка 5/5 330 м
[Sc]
+27.0 +25.6 92 +40 +40 очень
душно
1010.3 1010.0 +26.3
09 12.01 штиль 0 8000 м в посл. час гроза 9/6 360 м
[Cu Sc Ac trans]
+29.1 +26.7 87 +45 +48 опасность
перегрева
1012.1 1012.0
12 12.01 Ю 2 8000 м мгла {гроза} 8/6 420 м
[Cu med, cong Ac trans Cs]
+31.4 +26.7 76 +48 +54 опасность
перегрева
1010.0 1010.0
15 12.01 ЮЗ 4 8000 м мгла 8/6 420 м
[Cu med, cong Ac trans Ci sp]
+30.7 +26.4 78 +47 +49 опасность
перегрева
1008.1 1008.0
21 12.01 штиль 0 8000 м дымка ясно +27.6 +26.2 92 +42 +42 опасность
перегрева
1012.1 1012.0
03 13.01 штиль 0 8000 м дымка ясно +26.0 +24.4 91 +36 +36 очень
душно
1010.4 1010.0
06 13.01 З 1 4000 м дымка 3/3 300 м
[Cu Sc]
+25.7 +25.0 96 +37 +37 очень
душно
1011.1 1011.0 +24.9
09 13.01 штиль 0 5000 м дымка 4/3 330 м
[Cu Sc]
+28.5 +26.5 89 +44 +51 опасность
перегрева
1013.4 1013.0
12 13.01 ЮЗ 5 6000 м мгла 3/3 420 м
[Cu med, cong]
+32.1 +27.3 76 +51 +58 опасность
перегрева
1012.0 1012.0
15 13.01 ЮЗ 5 8000 м мгла 3/1 420 м
[Cu med, cong Ac trans Ci sp]
+33.4 +26.9 69 +51 +56 опасность
перегрева
1009.4 1009.0
15 14.01 ЮЗ 5 10 км 5/1 420 м
[Cu med, cong Ci sp]
+31.6 +26.9 76 +49 +53 опасность
перегрева
1010.6 1011.0
21 14.01 ЮЗ 1 10 км 3/3 330 м
[Sc]
+27.9 +26.1 90 +42 +42 опасность
перегрева
1012.9 1013.0
06 15.01 штиль 0 3000 м дымка 5/5 300 м
[Sc]
+26.1 +25.2 95 +38 +38 очень
душно
1011.5 1012.0 +25.5
09 15.01 штиль 0 8000 м дымка 1/1 360 м
[Cu med, cong]
+29.0 +26.4 86 +44 +54 опасность
перегрева
1013.7 1014.0
12 15.01 ЮЗ 4 8000 м мгла 8/4 400 м
[Cb cap]
+31.5 +26.5 75 +48 +53 опасность
перегрева
1012.7 1013.0
15 15.01 ЮЗ 6 10 км в посл. час дождь 5/3 400 м
[Cb cap Ci sp]
+30.0 +26.6 82 +46 +49 опасность
перегрева
1010.4 1010.0
21 15.01 штиль 0 10 км ясно +27.9 +26.7 93 +43 +43 опасность
перегрева
1012.6 1013.0
00 16.01 штиль 0 10 км 3/3 330 м
[Sc]
+27.5 +26.3 93 +42 +42 опасность
перегрева
1012.3 1012.0

 

Местоположение метеостанции Такоради (Гана): широта 4.88 долгота -1.77 высота над уровнем моря 9 м.

В архиве по умолчанию представлена погода Такоради за последнюю неделю. Архивные данные за месяц целиком и за предыдущие месяцы, начиная с января 2011 года, Вы можете получить, выбрав интересующий диапазон дат из раскрывающегося списка и нажав кнопку "Ввод!".


*Определитесь, кто Вы:
робот инопланетянин человек

Внимание! Время в таблицах - всемирное. Для получения местного времени необходимо прибавить поправку, которая равна 1 ч.

Смотрите также архив погоды в соседних городах и на ближайших метеорологических станциях:

Погода в Аксиме (Гана) (51 км)
Погода в Солтпонде (Гана) (85 км)
Погода в Аким Ода (Гана) (146 км)
Погода в Сефви Беквай (Гана) (159 км)
Погода в Адиаке (Кот-д'Ивуар) (176 км)
Погода в Аккра (Гана) (194 км)
Погода в Кумаси (Гана) (206 км)
Погода в Тема (Гана) (213 км)
Погода в Кофоридуа (Гана) (215 км)
Погода в Абетифи (Гана) (229 км)

Пояснения к столбцам:

Ветер - указаны скорость ветра в м/с - средняя за 10 мин, порывы в срок и между сроками (в фигурных скобках) и направление, откуда дует ветер: С - северный, СВ - северо-восточный, В - восточный, ЮВ - юго-восточный, Ю - южный, ЮЗ - юго-западный, З - западный, СЗ - северо-западный.
Видимость - горизонтальная дальность видимости в метрах или километрах. При видимости от 1 до 10 км при отсутствии осадков обычно наблюдается дымка, при ухудшении видимости до 1 км и менее - туман. В сухую погоду видимость может ухудшаться дымом, пылью или мглою.
Явления - указаны атмосферные явления, наблюдавшиеся в срок или в последний час перед сроком; фигурными скобками обозначены явления, наблюдавшиеся между сроками (за 1-3 часа до срока); квадратными скобками обозначены град или гололедные отложения с указанием их диаметра в мм.
Облачность - указаны через наклонную черту общая и нижняя облачность в баллах и высота нижней границы облаков в метрах; квадратными скобками обозначены формы облаков: Ci - перистые, Cs - перисто-слоистые, Cc - перисто-кучевые, Ac - высококучевые, As - высокослоистые, Sc - слоисто-кучевые, Ns - слоисто-дождевые, Cu - кучевые, Cb - кучево-дождевые. Подробнее классификацию облаков см. в Атласе облаков (PDF).
T - Температура воздуха - температура, измеренная на высоте 2 м над землей.
Td - Температура точки росы - температура, при понижении до которой содержащийся в воздухе водяной пар достигнет насыщения.
f - Относительная влажность воздуха - влажноcть воздуха, измеренная на высоте 2 м над землей.
Te - Эффективная температура - температура, которую ощущает одетый по сезону человек в тени. Характеристика душности погоды. При расчете учитывается влияние влажности воздуха и скорости ветра на теплоощущения человека.
Tes - Эффективная температура на солнце - температура, которую ощущает человек, с поправкой на солнечный нагрев. Характеристика знойности погоды. Зависит от высоты солнца над горизонтом, облачности и скорости ветра. Ночью, в пасмурную погоду, а также при ветре 12 м/с и более поправка равна нулю.
P - Атмосферное давление - приведенное к уровню моря атмосферное давление.
Po - Атмосферное давление - измеренное на уровне метеостанции атмосферное давление.
Tmin - Минимальная температура - минимум температуры воздуха на высоте 2 м над землей.
Tmax - Максимальная температура - максимум температуры воздуха на высоте 2 м над землей.
R - Количество осадков - Количество выпавших осадков за период времени, мм. При наведении курсора мыши на число - период времени, за который выпало указанное количество осадков.
R24 - Количество осадков - Количество выпавших осадков за 24 часа, мм.
S - Снежный покров - Высота снежного покрова, см. При наведении курсора мыши на число - состояние снежного покрова и степень покрытия местности в баллах.